Regional Weather Roundup
Issued by NWS

Home | Current Version | Previous Version | Text Only | Print | Product List | Glossary On
Versions: 1 2 3 4 5 6 7 8 9 10 11 12 13 14 15 16 17 18 19 20 21 22 23 24 25 26 27 28 29 30 31 32 33 34 35 36 37 38 39 40 41 42 43 44 45 46 47 48 49 50
000
ASUS43 KFSD 281510
RWRSD

WEATHER ROUNDUP FOR SOUTH DAKOTA
NATIONAL WEATHER SERVICE SIOUX FALLS SD
1000 AM CDT FRI JUL 28 2017

NOTE: "FAIR" INDICATES FEW OR NO CLOUDS BELOW 12,000 FEET WITH NO
SIGNIFICANT WEATHER AND/OR OBSTRUCTIONS TO VISIBILITY.


SDZ001>005-009-010-012>017-281600-
NORTHWEST AND NORTH CENTRAL SOUTH DAKOTA

CITY           SKY/WX    TMP DP  RH WIND       PRES   REMARKS
BUFFALO          N/A     73  59  61 S12       29.98F
FAITH            N/A     70  63  78 S15       30.05S
MOBRIDGE       CLOUDY    76  64  66 SE14      30.03S
$$

SDZ012>016-024>037-041>051-057-063-072>074-281600-
SOUTHWEST AND SOUTH CENTRAL SOUTH DAKOTA

CITY           SKY/WX    TMP DP  RH WIND       PRES   REMARKS
RAPID CTY ARPT SUNNY     74  60  61 CALM      30.06S
PIERRE         CLOUDY    76  61  59 SE16      30.04S
CUSTER         CLOUDY    65  58  78 W10       30.19S
ELLSWORTH AFB  SUNNY     74  59  59 N3        30.06R
PHILIP         PTSUNNY   75  64  68 S10       30.03F
PINE RIDGE     CLOUDY    72  62  71 CALM      30.10R
SPEARFISH      FAIR      72  61  68 NE9       30.10R
WINNER         PTSUNNY   79  62  56 S15       30.08R
$$

SDZ004>011-016>023-039-040-281600-
NORTHEAST SOUTH DAKOTA

CITY           SKY/WX    TMP DP  RH WIND       PRES   REMARKS
ABERDEEN       MOSUNNY   77  64  64 S8        30.08S
WATERTOWN      MOSUNNY   74  60  61 SE7       30.11R
BROOKINGS      PTSUNNY   69  65  86 CALM      30.12R
SISSETON         N/A     76  63  64 CALM      30.08S
$$

SDZ017-020-022-023-036>040-048>070-281600-
SOUTHEAST SOUTH DAKOTA

CITY           SKY/WX    TMP DP  RH WIND       PRES   REMARKS
SIOUX FALLS    CLOUDY    74  64  71 CALM      30.10S
HURON          LGT RAIN  70  65  84 CALM      30.10R
CHAMBERLAIN    CLOUDY    74  66  74 S13       30.08R
MITCHELL       MOSUNNY   72  65  78 S3        30.10R
YANKTON        CLOUDY    68  64  87 E5        30.10S
$$

ABBREVIATIONS USED IN REMARKS
   TC - TEMPERATURE IN CELSIUS
  WCI - WIND CHILL INDEX
   HX - HEAT INDEX
  VSB - VISIBILITY




USA.gov is the U.S. government's official web portal to all federal, state and local government web resources and services.